ONEWEB-0664, 55824

Orbit data source: Space-Track

ONEWEB-0664, 55824 is a payload satellite owned by One Web (NAA) (UK) in LEO that was launched on Thu, 09 Mar 2023 UTC via an FALCON 9 launch vehicle from the Air Force Eastern Test Range (AFETR). Payload-class satellites include a variety of spacecraft equipped with specific instruments for various scientific and technological missions. These include communications satellites like Starlink; space stations such as the ISS; scientific satellites like the Hubble; Earth observation satellites from companies like Planet Labs, Umbra, and HawkEye 360; GPS; miniature CubeSats for education and research; and military/defense satellites.

Loading next visibility...
Identifier
55824, 2023-029AE
Orbit
LEO
Country
Flag of UKUK
Related business
Manufacturer
One Web
Mission
Operational Commercial Communications
Bus & Motor
ARROW, Unknown motor
Mass
148 kg wet, ~140 kg dry
Launch date (UTC)
2023-03-09 (3 years ago)
Launch vehicle
FALCON 9
Launch site
Air Force Eastern Test Range (AFETR)
Object type
Payload
Rocket body
Debris
Shape & HBR
Trap Box + 2 Pan, 6.7 m
Radar Cross Section
3.464 m², Large (>1 m²)

Expand to show TLE details & history
Last TLE update: 2 days ago

TLE from 2 days ago
0 ONEWEB-0664
1 55824U 23029AE  26171.29697049  .00000100  00000-0  21332-3 0  9998
2 55824  87.9185 273.8625 0001715  87.4527 272.6803 13.20770862161556
Epoch: 2026-06-20T07:07Z
TLE epoch observation values (Epoch: 2026-06-20T07:07:38.250Z)
Latitude
0.00002°
Longitude
-101.56049°
Altitude
1,184.62 km
Speed
7.261 km/s
True Right ascension
18h 15m 27s
True Declination
0° 00' 00"
Sunlit
Object was in full shadow at epoch
Visualization orbit readout
Latitude
Unknown
Longitude
Unknown
Altitude
Unknown
Speed
Unknown
Apparent Right ascension
Unknown
Apparent Declination
Unknown
Sunlit
N/A
Visualization observer readout
Local Sidereal Time
21:37:18
Azimuth
Unknown
Elevation
Unknown
Doppler factor
Unknown
Orbital elements
Apogee altitude
1,180.177 km
Perigee altitude
1,177.585 km
Semi-major axis
7,557.018 km
Eccentricity
0.00017
Inclination
87.9185°
RAAN
273.8625°
Arg. of periapsis
87.4527°
True anomaly
272.66067°
Mean anomaly
272.6803°
Eccentric anomaly
272.67048°
Mean motion
3.30383 °/min
Orbital period
108.96 mins
BSTAR
0.00021332
Loading maneuver chart data...
Computing Atmospheric mass density...
Loading historical data...
Loading historical data...
Loading historical data...
Loading historical data...
Loading historical data...
Loading historical data...
Loading historical data...

Documentation

Showing up to 5 results
|